Regional Weather Roundup
Issued by NWS

Home | Current Version | Previous Version | Text Only | Print | Product List | Glossary Off
Versions: 1 2 3 4 5 6 7 8 9 10 11 12 13 14 15 16 17 18 19 20 21 22 23 24 25 26 27 28 29 30 31 32 33 34 35 36 37 38 39 40 41 42 43 44 45 46 47 48 49 50

000
ASUS45 KSLC 022310
RWRUT

UTAH REGIONAL WEATHER ROUNDUP
NATIONAL WEATHER SERVICE SALT LAKE CITY UT
400 PM MST MON MAR 02 2015

UTZ001>011-023>025-030000-

NORTHERN UTAH

CITY           SKY/WX    TMP DP  RH WIND       PRES   REMARKS
BRIGHAM CITY   CLOUDY    36  32  87 CALM      29.66F
HILL AFB       LGT SNOW  34  34 100 N6        29.62F FOG     WCI  29
LOGAN          LGT SNOW  36  31  82 CALM      29.65F
OGDEN          LGT RAIN  36  35  96 N7        29.62F WCI  30
PROVO AIRPORT  CLOUDY    43  37  81 NW7       29.61F
SALT LAKE CITY CLOUDY    41  35  79 N12       29.61F
VERNAL         CLOUDY    34  32  92 SW3       29.64F
WENDOVER       CLOUDY    36  30  80 SW5       29.69S WCI  32
HEBER CITY     CLOUDY    34  32  93 CALM      29.60F FOG
WEST JORDAN    CLOUDY    39  37  93 S14G22    29.61F WCI  31

$$

UTZ012>022-026-027-030000-

SOUTHERN/CENTRAL UTAH

CITY           SKY/WX    TMP DP  RH WIND       PRES   REMARKS
BLANDING       CLOUDY    36  34  94 SW13      29.85R WCI  27
BRYCE CANYON   PTSUNNY   31  24  75 S12G25    29.72R WCI  22
CEDAR CITY     CLOUDY    34  30  85 SW15      29.72R WCI  24
DELTA          CLOUDY    42  35  77 SW23G29   29.65R
HANKSVILLE     CLOUDY    41  36  81 CALM      29.73S
MILFORD        CLOUDY    35  32  88 S17       29.71R WCI  25
MOAB/CYNLANDS  LGT RAIN  42  38  85 W15       29.70R
PRICE          FOG       34  32  92 SW5       29.65R VSB 1/2 WCI  30
ST GEORGE      CLOUDY    48  36  61 W3        29.80R
KANAB          PTSUNNY   36  36 100 CALM      29.82S

$$

REGIONAL REPORTS     COLORADO/ARIZONA

CITY           SKY/WX    TMP DP  RH WIND       PRES   REMARKS
CRAIG, CO      PTSUNNY   45  34  65 SW7       29.59F
GRAND JUNCTION RAIN      41  39  93 NW17      29.66R FOG
RIFLE          CLOUDY    44  38  79 W5        29.59F
MONTROSE       NOT AVBL
CORTEZ         CLOUDY    43  37  79 S17G23    29.76R
PAGE, AZ       CLOUDY    45  38  76 N8        29.76R
GRAND CANYON   SNOW      31  30  96 SW12G22   29.83R VSB 1/4 WCI  22
KINGMAN        MOSUNNY   50  38  63 SW17G28   29.85R
FLAGSTAFF      SNOW      29  27  92 SW10      29.83F VSB 1/2 WCI  20

$$

REGIONAL REPORTS    NEVADA/IDAHO/WYOMING

CITY           SKY/WX    TMP DP  RH WIND       PRES   REMARKS
LAS VEGAS, NV  PTSUNNY   58  32  37 SW20G29   29.75R
ELY            LGT SNOW  30  28  92 NE5       29.69R FOG     WCI  25
ELKO           FLURRIES  38  27  64 NW15      29.69R WCI  29
POCATELLO, ID  PTSUNNY   42  24  49 E5        29.67S
BURLEY         MOSUNNY   47  16  29 NW6       29.63F
EVANSTON, WY   FLURRIES  33  27  78 S6        29.61F WCI  28
ROCK SPRINGS   LGT SNOW  31  30  96 W7        29.64R VSB 1   WCI  24
KEMMERER       FLURRIES  30  27  86 SE6       29.64R WCI  24

$$



USA.gov is the U.S. government's official web portal to all federal, state and local government web resources and services.